Location: Alafon
(8.4500°N, 4.2333°E)
Time: 12:05:25
(UTC+00:00)

Vanguard 1 Rocket - All Passes

Search period start: 03 August 2021 00:00
Search period end: 13 August 2021 00:00
Orbit: 650 x 4226 km, 34.3° (Epoch: 02 August)

Date Brightness Start Highest point End Pass type
(mag) Time Alt. Az. Time Alt. Az. Time Alt. Az.
03 Aug - 01:40:43 10° S 01:48:07 13° SSE 01:56:34 10° SE visible
03 Aug - 04:01:35 10° SSW 04:23:08 44° SE 04:45:54 10° ENE visible
03 Aug - 06:30:22 10° SW 06:57:00 87° NW 07:17:19 10° NE daylight
03 Aug - 09:07:50 10° W 09:29:51 40° NNW 09:43:31 10° NE daylight
03 Aug - 11:53:28 10° NW 12:02:16 17° NNW 12:08:27 10° NNE daylight
03 Aug - 14:28:08 10° NNW 14:32:52 16° NNE 14:36:27 10° NE daylight
03 Aug - 16:54:12 10° NW 16:59:23 88° NE 17:03:45 10° SE daylight
04 Aug - 02:50:23 10° SSW 03:07:29 29° SE 03:27:54 10° E visible
04 Aug - 05:16:16 10° SW 05:41:19 72° SE 06:04:12 10° ENE visible
04 Aug - 07:49:22 10° WSW 08:14:54 56° NW 08:32:09 10° NE daylight
04 Aug - 10:32:54 10° WNW 10:47:55 24° NNW 10:57:34 10° NNE daylight
04 Aug - 13:14:17 10° NNW 13:19:58 15° N 13:24:13 10° NE daylight
04 Aug - 15:42:25 10° NW 15:48:21 38° NNE 15:52:35 10° E daylight
04 Aug - 18:10:07 10° W 18:13:11 18° SW 18:16:20 10° S daylight
05 Aug - 01:41:05 10° S 01:51:55 17° SE 02:05:10 10° ESE visible
05 Aug - 04:03:35 10° SSW 04:25:37 53° SE 04:49:32 10° ENE visible
05 Aug - 06:33:05 10° WSW 06:59:27 75° NW 07:20:05 10° NE daylight
05 Aug - 09:12:06 10° W 09:33:04 35° NNW 09:46:27 10° NE daylight
05 Aug - 11:57:21 10° NW 12:06:16 18° N 12:12:28 10° NNE daylight
05 Aug - 14:30:10 10° NNW 14:36:32 23° NNE 14:40:54 10° ENE daylight
05 Aug - 16:57:18 10° WNW 17:02:23 50° SW 17:06:37 10° SE daylight
06 Aug - 02:52:10 10° SSW 03:10:15 36° SE 03:32:33 10° E visible
06 Aug - 05:18:39 10° SW 05:43:38 84° SE 06:07:06 10° NE daylight
06 Aug - 07:52:57 10° W 08:17:44 49° NNW 08:34:55 10° NE daylight
06 Aug - 10:37:32 10° WNW 10:51:46 23° NNW 11:01:02 10° NNE daylight
06 Aug - 13:16:36 10° NW 13:23:52 19° N 13:28:51 10° NE daylight
06 Aug - 15:45:00 10° NW 15:51:35 63° NNE 15:56:03 10° ESE daylight
07 Aug - 01:42:16 10° S 01:55:12 22° SE 02:11:54 10° E visible
07 Aug - 04:05:45 10° SW 04:27:56 63° SE 04:52:48 10° ENE visible
07 Aug - 06:36:04 10° WSW 07:01:58 65° NW 07:22:48 10° NE daylight
07 Aug - 09:16:38 10° WNW 09:36:35 31° NNW 09:49:33 10° NE daylight
07 Aug - 12:00:40 10° NW 12:10:19 19° N 12:16:46 10° NE daylight
07 Aug - 14:32:23 10° NW 14:40:05 34° NNE 14:44:54 10° E daylight
07 Aug - 17:00:49 10° W 17:05:18 28° SW 17:09:05 10° SSE daylight
08 Aug - 00:38:47 10° SSE 00:40:14 10° SE 00:41:43 10° SE visible
08 Aug - 02:54:08 10° SSW 03:12:44 44° SE 03:36:34 10° ENE visible
08 Aug - 05:21:16 10° SW 05:46:00 85° NW 06:09:51 10° NE daylight
08 Aug - 07:56:53 10° W 08:20:49 42° NNW 08:37:46 10° NE daylight
08 Aug - 10:41:52 10° NW 10:55:47 23° N 11:04:49 10° NE daylight
08 Aug - 13:18:51 10° NW 13:27:40 25° NNE 13:33:12 10° ENE daylight
08 Aug - 15:47:48 10° WNW 15:54:39 77° SW 15:59:11 10° SE daylight
09 Aug - 01:43:50 10° S 01:58:04 28° SE 02:17:26 10° E visible
09 Aug - 04:08:06 10° SW 04:30:12 74° SE 04:55:46 10° ENE visible
09 Aug - 06:39:24 10° WSW 07:04:41 57° NNW 07:25:30 10° NE daylight
09 Aug - 09:21:16 10° WNW 09:40:20 29° NNW 09:52:54 10° NE daylight
09 Aug - 12:03:32 10° NW 12:14:19 23° N 12:21:09 10° NE daylight
09 Aug - 14:34:47 10° NW 14:43:27 52° NNE 14:48:32 10° ESE daylight
09 Aug - 17:05:01 10° W 17:08:10 16° SW 17:10:55 10° S daylight
10 Aug - 00:36:00 10° SSE 00:43:43 14° SE 00:53:19 10° ESE visible
10 Aug - 02:56:16 10° SSW 03:15:01 53° SE 03:40:05 10° ENE visible
10 Aug - 05:24:08 10° WSW 05:48:26 74° NW 06:12:30 10° NE daylight
10 Aug - 08:01:07 10° W 08:24:11 38° NNW 08:40:46 10° NE daylight
10 Aug - 10:45:44 10° NW 10:59:52 24° N 11:08:53 10° NE daylight
10 Aug - 13:21:06 10° NW 13:31:20 34° NNE 13:37:16 10° E daylight
10 Aug - 15:50:54 10° WNW 15:57:32 45° SW 16:01:59 10° SSE daylight
11 Aug - 01:45:40 10° SSW 02:00:37 35° SE 02:22:03 10° E visible
11 Aug - 04:10:39 10° SW 04:32:29 86° SE 04:58:32 10° NE visible
11 Aug - 06:43:02 10° W 07:07:39 49° NNW 07:28:15 10° NE daylight
11 Aug - 09:25:48 10° WNW 09:44:20 28° NNW 09:56:32 10° NE daylight
11 Aug - 12:06:07 10° NW 12:18:13 28° N 12:25:25 10° ENE daylight
11 Aug - 14:37:20 10° NW 14:46:38 79° NNE 14:51:52 10° ESE daylight
12 Aug - 00:36:43 10° S 00:46:46 19° SE 01:00:27 10° E visible
12 Aug - 02:58:35 10° SW 03:17:14 64° SE 03:43:12 10° ENE visible
12 Aug - 05:27:16 10° WSW 05:51:04 64° NNW 06:15:07 10° NE daylight
12 Aug - 08:05:35 10° WNW 08:27:52 34° NNW 08:44:00 10° NE daylight
12 Aug - 10:49:07 10° NW 11:03:57 26° N 11:13:07 10° NE daylight
12 Aug - 13:23:24 10° NW 13:34:50 47° NNE 13:41:01 10° E daylight
12 Aug - 15:54:24 10° WNW 16:00:16 28° SW 16:04:25 10° SSE daylight
